Flag for U.S.A. Weather past 2 weeks in Downey, California, U.S.A.

Now
68 °F

Clear.


Feels Like: 68 °F
Forecast: 64 / 88 °F
Wind: No wind

Location: Long Beach Airport

Current Time: Aug 27, 2014 at 6:34:36 AM

Latest Report: Aug 27, 2014 at 5:53 AM


Visibility: 10 mi

Pressure: 30.01 "Hg

Humidity: 84%

Dew point: 63 °F

Location of DowneyLocation

Historic Weather in Downey — Graph

°F

Downey temperature yesterday

Maximum temperature yesterday: 85 °F (at 2:53 PM)
Minimum temperature yesterday: 66 °F (at 4:53 AM)
Average temperature yesterday: 74 °F

Past Weeks' High & Low Weather Summary

 TemperatureHumidityPressure
High91 °F (Aug 16, 1:53 PM)91% (Aug 15, 2:53 AM)30.01 "Hg (Aug 15, 2:53 AM)
Low64 °F (Aug 15, 4:53 AM)28% (Aug 16, 1:53 PM)29.78 "Hg (Aug 18, 4:53 PM)
Average73 °F69%29.92 "Hg
* Reported Aug 12 4:53 AM — Aug 27 4:53 AM, Downey, Weather by CustomWeather, © 2014

Note: Actual official high and low records may vary slightly from our data, if they occured in-between our weather recording intervals... More about our weather records

Advertising

Downey weather history for previous 24 hours

 ConditionsComfort  
Time TempWeatherWind HumidityBarometerVisibility
4:53 AM
Aug 27
67 °FClear.No wind85%30.00 "Hg10 mi
3:53 AM69 °FClear.No wind79%29.99 "Hg10 mi
2:53 AM69 °FClear.No wind79%29.99 "Hg10 mi
1:53 AM69 °FClear.5 mph79%29.98 "Hg10 mi
12:53 AM69 °FClear.No wind79%29.98 "Hg10 mi
11:53 PM
Aug 26
70 °FClear.3 mph76%29.98 "Hg10 mi
10:53 PM70 °FClear.3 mph79%29.97 "Hg10 mi
9:53 PM71 °FClear.5 mph76%29.96 "Hg10 mi
8:53 PM71 °FClear.6 mph73%29.95 "Hg10 mi
7:53 PM73 °FSunny.7 mph66%29.93 "Hg10 mi
6:53 PM76 °FSunny.9 mph56%29.92 "Hg10 mi
5:53 PM79 °FSunny.8 mph52%29.91 "Hg10 mi
4:53 PM81 °FSunny.12 mph51%29.92 "Hg10 mi
3:53 PM83 °FSunny.10 mph48%29.92 "Hg10 mi
2:53 PM85 °FSunny.7 mph40%29.93 "Hg10 mi
1:53 PM83 °FSunny.6 mph44%29.95 "Hg10 mi
12:53 PM81 °FSunny.7 mph51%29.97 "Hg10 mi
11:53 AM79 °FSunny.8 mph56%29.97 "Hg10 mi
10:53 AM80 °FSunny.No wind52%29.97 "Hg10 mi
9:53 AM76 °FSunny.No wind58%29.97 "Hg10 mi
8:53 AM72 °FSunny.No wind66%29.97 "Hg10 mi
7:53 AM69 °FSunny.No wind76%29.97 "Hg10 mi
6:53 AM67 °FClear.No wind79%29.96 "Hg10 mi
Weather by CustomWeather, © 2014

See weather overviewHow to use our weather pages